Regional Weather Roundup
Issued by NWS

Home | Current Version | Previous Version | Graphics & Text | Print | Product List | Glossary On
Versions: 1 2 3 4 5 6 7 8 9 10 11 12 13 14 15 16 17 18 19 20 21 22 23 24 25 26 27 28 29 30 31 32 33 34 35 36 37 38 39 40 41 42 43 44 45 46 47 48 49 50
000
ASUS43 KBIS 220202
RWRND

NORTH DAKOTA REGIONAL WEATHER ROUNDUP
NATIONAL WEATHER SERVICE BISMARCK ND
800 PM CST TUE NOV 21 2017

NOTE: "FAIR" INDICATES FEW OR NO CLOUDS BELOW 12,000 FEET WITH NO
SIGNIFICANT WEATHER AND/OR OBSTRUCTIONS TO VISIBILITY.


NDZ001>003-009>011-017-220300-
NORTHWEST NORTH DAKOTA

CITY           SKY/WX    TMP DP  RH WIND       PRES   REMARKS
WILLISTON      CLOUDY    14   4  64 SE5       30.25F WCI   6
MINOT          CLOUDY     8   2  76 SW6       30.28F WCI  -2
MINOT AFB      CLOUDY     3  -1  81 W5        30.27F WCI  -6
$$

NDZ018>021-031>035-040>046-220300-
SOUTHWEST NORTH DAKOTA

CITY           SKY/WX    TMP DP  RH WIND       PRES   REMARKS
BISMARCK       CLOUDY    12   6  77 CALM      30.33F
DICKINSON      CLOUDY    12   1  61 S3        30.21F
GARRISON         N/A      5   2  87 S3        30.29S
HETTINGER ARPT CLOUDY    11   2  67 CALM      30.25F
$$

NDZ004>008-012>016-024-026-027-054-220300-
NORTHEAST NORTH DAKOTA

CITY           SKY/WX    TMP DP  RH WIND       PRES   REMARKS
GRAND FORKS    CLOUDY    16  11  80 W9        30.32S WCI   4
GRND FRKS AFB  PTCLDY    16  10  74 W10       30.31F WCI   4
DEVILS LAKE    PTCLDY    12   7  80 W10       30.30F WCI  -1
$$

NDZ022-023-025-028>030-036>039-047>053-220300-
SOUTHEAST NORTH DAKOTA

CITY           SKY/WX    TMP DP  RH WIND       PRES   REMARKS
FARGO          CLOUDY    16  10  77 W7        30.34F WCI   6
JAMESTOWN      CLOUDY     7   4  87 CALM      30.30F
$$





USA.gov is the U.S. government's official web portal to all federal, state and local government web resources and services.